[[{"header":{"parameterUnit":"m.s-1","parameterCategory":2,"la1":30.2992,"la2":30.254,"lo1":-89.0895,"lo2":-89.0443,"dy":0.0025,"dx":0.0025,"nx":19,"ny":19,"refTime":"2026-05-14T21:00:00:Z","depth":"0","parameterNumber":2,"parameterNumberName":"U-component_of_CURRENTS"},"data":[0,0,0,-0.1149,-0.115,-0.1161,-0.1161,-0.1118,-0.1117,0,0,0,0,0,0,0,0,0,0,0,-0.1132,-0.1132,-0.1149,-0.115,-0.1161,-0.1161,-0.1118,-0.1117,0,0,0,0,0,0,0,0,0,0,0,-0.1131,-0.1132,-0.1132,-0.115,-0.1161,-0.1161,-0.1118,-0.112,0,0,0,0,0,0,0,0,0,0,-0.1115,-0.1122,-0.1132,-0.1132,-0.115,-0.1161,-0.1161,-0.1121,-0.112,-0.1101,0,-0.1104,0,-0.1121,-0.1115,-0.1114,0,0,0,-0.1135,-0.1123,-0.1121,-0.1132,-0.1151,-0.1161,-0.1152,-0.1121,-0.112,-0.11,-0.1104,-0.1103,-0.112,-0.1114,-0.1114,-0.1113,-0.1113,0,0,-0.1135,-0.1136,-0.1122,-0.1121,-0.1154,-0.1152,-0.1153,-0.1121,-0.1121,-0.1104,-0.1102,-0.112,-0.1114,-0.1114,-0.1113,-0.1113,0,0,0,-0.1143,-0.1136,-0.1136,-0.1122,-0.1135,-0.1152,-0.1153,-0.1123,-0.1121,-0.1102,-0.1119,-0.1114,-0.1113,-0.1112,-0.1113,-0.1154,0,0,0,-0.1142,-0.1142,-0.1135,-0.1137,-0.1136,-0.114,-0.1156,-0.1123,-0.1121,-0.1119,-0.1114,-0.1113,-0.1112,-0.1113,-0.1152,-0.117,0,0,0,-0.1131,-0.1141,-0.1141,-0.1137,-0.115,-0.1142,-0.1139,-0.1123,-0.1132,-0.1114,-0.1113,-0.1112,-0.1113,-0.115,-0.1167,-0.1229,0,0,0,-0.1132,-0.1142,-0.1141,-0.1155,-0.115,-0.1164,-0.1139,-0.1141,-0.1129,-0.1113,-0.1112,-0.1113,-0.115,-0.1165,-0.1226,-0.1324,-0.1344,0,0,-0.1146,-0.1143,-0.1151,-0.1151,-0.1169,-0.1161,-0.1185,-0.1156,-0.1133,-0.1115,-0.1115,-0.1153,-0.1167,-0.1228,-0.1367,-0.1385,0,0,0,-0.1156,-0.1165,-0.1169,-0.118,-0.1183,-0.1199,-0.1186,-0.1181,-0.1169,-0.1134,-0.1156,-0.1164,-0.1202,-0.1255,-0.127,-0.1121,-0.1116,-0.1116,-0.1116,-0.1188,-0.1184,-0.1194,-0.1199,-0.121,-0.1222,-0.1236,-0.1227,-0.1195,-0.1202,-0.12,-0.1277,-0.1334,-0.1346,-0.119,-0.1203,-0.1203,-0.1203,-0.1203,-0.121,-0.1212,-0.121,-0.1216,-0.1226,-0.1242,-0.1267,-0.1265,-0.1297,-0.1247,-0.1282,-0.1299,-0.1365,-0.1193,-0.1206,-0.1205,-0.1205,-0.1205,-0.1205,-0.1235,-0.1228,-0.1225,-0.1222,-0.1232,-0.1247,-0.1282,-0.1305,-0.1328,-0.1363,-0.1433,-0.1434,-0.1282,-0.1382,-0.1383,-0.1383,-0.1383,-0.1384,-0.1384,-0.1247,-0.1241,-0.1236,-0.123,-0.122,-0.1237,-0.129,-0.1341,-0.145,-0.1492,-0.1493,-0.1296,-0.1332,-0.1325,-0.1389,-0.1388,-0.1388,-0.1387,-0.1387,-0.126,-0.1257,-0.1242,-0.1229,-0.1205,-0.1203,-0.1279,-0.1439,-0.1533,-0.1616,-0.1481,-0.1577,-0.1579,-0.1568,-0.1567,-0.1691,-0.1691,-0.1691,-0.1691,-0.1267,-0.1266,-0.1226,-0.1189,-0.1172,-0.1177,-0.1268,-0.1439,-0.1551,-0.157,-0.1516,-0.1461,-0.1455,-0.1444,-0.1436,-0.1429,-0.1514,-0.1513,-0.1513,-0.1261,-0.1245,-0.1207,-0.1163,-0.1126,-0.1144,-0.1213,-0.1364,-0.1504,-0.1482,-0.1285,-0.1292,-0.1181,-0.1184,-0.1141,-0.1141,-0.1121,0,0]},{"header":{"parameterUnit":"m.s-1","parameterCategory":2,"la1":30.2992,"la2":30.254,"lo1":-89.0895,"lo2":-89.0443,"dy":0.0025,"dx":0.0025,"nx":19,"ny":19,"refTime":"2026-05-14T21:00:00:Z","depth":"0","parameterNumber":3,"parameterNumberName":"V-component_of_CURRENTS"},"data":[0,0,0,-0.0706,-0.0705,-0.0644,-0.0643,-0.0584,-0.0584,0,0,0,0,0,0,0,0,0,0,0,-0.0719,-0.0718,-0.0706,-0.0705,-0.0644,-0.0643,-0.0584,-0.0584,0,0,0,0,0,0,0,0,0,0,0,-0.0719,-0.0718,-0.0718,-0.0705,-0.0644,-0.0643,-0.0584,-0.0623,0,0,0,0,0,0,0,0,0,0,-0.0678,-0.0701,-0.0718,-0.0718,-0.0705,-0.0644,-0.0643,-0.0624,-0.062,-0.0622,0,-0.0613,0,-0.0607,-0.0582,-0.0582,0,0,0,-0.0692,-0.0704,-0.0683,-0.0718,-0.0704,-0.0644,-0.0668,-0.0622,-0.0617,-0.0617,-0.0612,-0.061,-0.0606,-0.0581,-0.0581,-0.0616,-0.0617,0,0,-0.0695,-0.0711,-0.0686,-0.068,-0.069,-0.067,-0.0666,-0.0619,-0.0618,-0.0612,-0.0609,-0.0605,-0.0581,-0.0581,-0.0616,-0.0617,0,0,0,-0.0714,-0.0714,-0.0693,-0.0683,-0.0676,-0.0668,-0.0664,-0.062,-0.0612,-0.0608,-0.0605,-0.0581,-0.0581,-0.0615,-0.0616,-0.065,0,0,0,-0.0715,-0.0725,-0.0695,-0.0704,-0.0676,-0.0647,-0.0666,-0.0615,-0.0609,-0.0605,-0.0581,-0.058,-0.0614,-0.0616,-0.0647,-0.0677,0,0,0,-0.0721,-0.0726,-0.0718,-0.0705,-0.0685,-0.0648,-0.0636,-0.0613,-0.0608,-0.0582,-0.058,-0.0614,-0.0615,-0.0645,-0.0673,-0.0715,0,0,0,-0.074,-0.0748,-0.0719,-0.072,-0.0686,-0.0674,-0.0636,-0.0622,-0.0603,-0.0581,-0.0614,-0.0616,-0.0644,-0.067,-0.0713,-0.0842,-0.0865,0,0,-0.0766,-0.0752,-0.0751,-0.0723,-0.0722,-0.0682,-0.0693,-0.0649,-0.0629,-0.0627,-0.0627,-0.0648,-0.0673,-0.0715,-0.0929,-0.095,0,0,0,-0.0769,-0.0778,-0.0769,-0.0757,-0.0729,-0.0731,-0.0692,-0.0678,-0.067,-0.0627,-0.067,-0.0685,-0.071,-0.0783,-0.0799,-0.0462,-0.0623,-0.0623,-0.0623,-0.0844,-0.0815,-0.0821,-0.0799,-0.0794,-0.0766,-0.0761,-0.0746,-0.0709,-0.0722,-0.0727,-0.0806,-0.0885,-0.0899,-0.0549,-0.0737,-0.0737,-0.0738,-0.0738,-0.0892,-0.0889,-0.0868,-0.0869,-0.0852,-0.0861,-0.084,-0.0816,-0.0825,-0.0785,-0.0807,-0.0834,-0.0919,-0.0539,-0.074,-0.074,-0.0739,-0.0739,-0.0739,-0.0933,-0.0928,-0.0924,-0.0924,-0.0938,-0.0921,-0.0954,-0.0914,-0.0878,-0.0893,-0.0978,-0.0979,-0.0632,-0.0904,-0.0904,-0.0905,-0.0905,-0.0905,-0.0905,-0.0965,-0.0961,-0.0984,-0.0988,-0.0999,-0.1024,-0.1021,-0.1041,-0.1065,-0.1048,-0.1049,-0.0633,-0.0857,-0.0835,-0.091,-0.091,-0.0909,-0.0908,-0.0908,-0.0997,-0.1003,-0.1039,-0.1057,-0.1099,-0.1182,-0.1172,-0.1276,-0.128,-0.133,-0.0822,-0.1133,-0.1139,-0.1127,-0.1113,-0.1256,-0.1256,-0.1256,-0.1256,-0.102,-0.1026,-0.1083,-0.1128,-0.1197,-0.1252,-0.1435,-0.1491,-0.1209,-0.0964,-0.0766,-0.0688,-0.069,-0.066,-0.0658,-0.063,-0.0647,-0.0645,-0.0643,-0.1034,-0.1054,-0.1101,-0.1154,-0.1236,-0.1362,-0.1557,-0.1585,-0.1016,-0.0571,-0.0258,-0.0284,-0.0116,-0.0145,-0.0058,-0.0083,-0.0025,0,0]}],[{"header":{"parameterUnit":"m.s-1","parameterCategory":2,"la1":30.2992,"la2":30.254,"lo1":-89.0895,"lo2":-89.0443,"dy":0.0025,"dx":0.0025,"nx":19,"ny":19,"refTime":"2026-05-14T21:00:00:Z","depth":"2","parameterNumber":2,"parameterNumberName":"U-component_of_CURRENTS"},"data":[0,0,0,-0.1025,-0.1024,-0.0993,-0.0993,-0.1065,-0.1065,0,0,0,0,0,0,0,0,0,0,0,-0.1038,-0.1037,-0.1025,-0.1024,-0.0993,-0.0993,-0.1064,-0.1065,0,0,0,0,0,0,0,0,0,0,0,-0.1038,-0.1038,-0.1037,-0.1024,-0.0993,-0.0993,-0.1064,-0.1065,0,0,0,0,0,0,0,0,0,0,-0.1083,-0.106,-0.1038,-0.1037,-0.1023,-0.0993,-0.0993,-0.1064,-0.1065,-0.1103,0,-0.108,0,-0.1067,-0.1071,-0.1071,0,0,0,-0.1045,-0.1059,-0.1058,-0.1037,-0.1023,-0.0993,-0.1013,-0.1064,-0.1065,-0.1105,-0.1081,-0.1083,-0.1068,-0.1071,-0.1071,-0.1186,-0.1186,0,0,-0.1046,-0.1034,-0.1056,-0.1057,-0.0994,-0.1014,-0.1012,-0.1064,-0.1055,-0.1081,-0.1084,-0.1069,-0.1072,-0.1072,-0.1185,-0.1186,0,0,0,-0.1037,-0.1035,-0.103,-0.1056,-0.1036,-0.1012,-0.101,-0.1052,-0.1052,-0.1085,-0.107,-0.1072,-0.1073,-0.1184,-0.1185,-0.1158,0,0,0,-0.1039,-0.1028,-0.1031,-0.1023,-0.1034,-0.1025,-0.0998,-0.1048,-0.1053,-0.1069,-0.1072,-0.1074,-0.1184,-0.1185,-0.1157,-0.1179,0,0,0,-0.1043,-0.1028,-0.102,-0.1023,-0.1,-0.1023,-0.1026,-0.1049,-0.1044,-0.1071,-0.1074,-0.1183,-0.1185,-0.1156,-0.1178,-0.1261,0,0,0,-0.1042,-0.1026,-0.1019,-0.1015,-0.1,-0.1019,-0.1025,-0.1041,-0.1063,-0.1073,-0.1184,-0.1185,-0.1156,-0.1176,-0.1259,-0.1349,-0.1366,0,0,-0.103,-0.1024,-0.1031,-0.1024,-0.1047,-0.1026,-0.1063,-0.1086,-0.1106,-0.1176,-0.1178,-0.1157,-0.1177,-0.126,-0.1438,-0.1453,0,0,0,-0.1036,-0.1035,-0.1046,-0.1049,-0.1062,-0.1085,-0.1086,-0.1101,-0.1146,-0.112,-0.1197,-0.1212,-0.1265,-0.1315,-0.1328,-0.1193,-0.1192,-0.1192,-0.1192,-0.1012,-0.1038,-0.1053,-0.1082,-0.1099,-0.1126,-0.116,-0.1188,-0.1173,-0.1193,-0.1217,-0.1303,-0.1355,-0.1366,-0.1231,-0.1231,-0.1231,-0.1231,-0.1231,-0.1022,-0.1033,-0.1067,-0.1083,-0.1119,-0.1136,-0.1211,-0.1211,-0.129,-0.1243,-0.1294,-0.1317,-0.1378,-0.123,-0.123,-0.123,-0.123,-0.123,-0.123,-0.1016,-0.102,-0.1033,-0.1072,-0.1097,-0.1133,-0.1225,-0.126,-0.1294,-0.1341,-0.144,-0.1441,-0.1306,-0.1361,-0.1361,-0.1361,-0.1362,-0.1362,-0.1362,-0.0994,-0.1015,-0.1023,-0.1059,-0.1077,-0.1122,-0.1226,-0.1312,-0.1435,-0.1467,-0.1468,-0.1349,-0.1345,-0.1318,-0.137,-0.1368,-0.1367,-0.1367,-0.1366,-0.0959,-0.0982,-0.1005,-0.1025,-0.1076,-0.1114,-0.126,-0.1453,-0.1574,-0.1658,-0.1568,-0.1561,-0.1601,-0.1592,-0.1575,-0.169,-0.169,-0.169,-0.169,-0.093,-0.0945,-0.0961,-0.0985,-0.1046,-0.1097,-0.1264,-0.1422,-0.1571,-0.1581,-0.1584,-0.152,-0.1512,-0.1542,-0.1534,-0.1513,-0.1611,-0.1611,-0.161,-0.0894,-0.0911,-0.0889,-0.0912,-0.0978,-0.1052,-0.1159,-0.1227,-0.1326,-0.1592,-0.1417,-0.1714,-0.1628,-0.1612,-0.1663,-0.1648,-0.1617,0,0]},{"header":{"parameterUnit":"m.s-1","parameterCategory":2,"la1":30.2992,"la2":30.254,"lo1":-89.0895,"lo2":-89.0443,"dy":0.0025,"dx":0.0025,"nx":19,"ny":19,"refTime":"2026-05-14T21:00:00:Z","depth":"2","parameterNumber":3,"parameterNumberName":"V-component_of_CURRENTS"},"data":[0,0,0,0.029,0.029,0.0258,0.0258,0.027,0.027,0,0,0,0,0,0,0,0,0,0,0,0.0284,0.0284,0.029,0.029,0.0258,0.0258,0.027,0.027,0,0,0,0,0,0,0,0,0,0,0,0.0284,0.0284,0.0284,0.029,0.0258,0.0258,0.027,0.0275,0,0,0,0,0,0,0,0,0,0,0.0298,0.0249,0.0284,0.0284,0.029,0.0258,0.0258,0.0275,0.0275,0.0307,0,0.0302,0,0.0306,0.0274,0.0275,0,0,0,0.0268,0.0248,0.0292,0.0284,0.029,0.0258,0.0266,0.0274,0.0275,0.0308,0.0302,0.0303,0.0307,0.0275,0.0275,0.0316,0.0316,0,0,0.027,0.0229,0.0291,0.0292,0.0285,0.0268,0.0266,0.0274,0.0246,0.0302,0.0303,0.0307,0.0275,0.0276,0.0316,0.0316,0,0,0,0.029,0.023,0.027,0.0291,0.0292,0.0267,0.0265,0.0244,0.0272,0.0304,0.0307,0.0276,0.0276,0.0316,0.0316,0.0184,0,0,0,0.029,0.0245,0.0271,0.024,0.0292,0.025,0.0234,0.0271,0.0273,0.0307,0.0276,0.0277,0.0316,0.0316,0.0187,0.0175,0,0,0,0.0285,0.0243,0.0252,0.0239,0.0243,0.0251,0.0275,0.027,0.0277,0.0275,0.0277,0.0316,0.0316,0.019,0.018,0.0163,0,0,0,0.0229,0.0213,0.025,0.0213,0.0244,0.0236,0.0275,0.0242,0.0231,0.0276,0.0316,0.0316,0.0191,0.0183,0.0166,0.0131,0.0116,0,0,0.0186,0.0205,0.0187,0.0222,0.0197,0.0239,0.0188,0.0191,0.0251,0.0314,0.0314,0.0186,0.018,0.0164,0.013,0.0115,0,0,0,0.0159,0.0146,0.014,0.013,0.0151,0.0148,0.0157,0.0174,0.0192,0.0252,0.0223,0.0226,0.0218,0.0204,0.0193,0.0316,0.0316,0.0316,0.0316,0.0046,0.0074,0.0039,0.0069,0.0062,0.0077,0.0078,0.0121,0.0145,0.0142,0.0142,0.0081,0.0063,0.0055,0.0149,0.0149,0.0148,0.0148,0.0148,-0.0015,-0.0032,-0.0014,-0.0033,-0.0009,-0.0037,0.001,0.0018,0.004,0.0076,0.0072,0.0097,0.0034,0.0138,0.014,0.0141,0.0142,0.0143,0.0144,-0.0072,-0.0076,-0.0077,-0.0091,-0.0109,-0.01,-0.0112,-0.0074,-0.0041,-0.0052,-0.0042,-0.0039,0.0012,-0.0079,-0.0079,-0.008,-0.008,-0.008,-0.008,-0.0134,-0.0126,-0.0155,-0.0156,-0.0169,-0.0187,-0.0181,-0.0187,-0.0175,-0.0138,-0.0138,0.0007,0.0014,0.0003,-0.0082,-0.0082,-0.0082,-0.0081,-0.0081,-0.0205,-0.0207,-0.0237,-0.0249,-0.0266,-0.0314,-0.0281,-0.0328,-0.0313,-0.0318,-0.0168,-0.0165,-0.0107,-0.0096,-0.0107,-0.0216,-0.0216,-0.0216,-0.0216,-0.0269,-0.0268,-0.0332,-0.0347,-0.0361,-0.0377,-0.0497,-0.0379,-0.0247,0.001,0.0002,0.0038,0.0035,0.0108,0.0114,0.0111,0.0059,0.006,0.0061,-0.0325,-0.034,-0.0398,-0.0413,-0.0415,-0.0487,-0.061,-0.0438,0.0101,0.0087,0.0204,-0.0227,-0.0199,-0.0193,-0.0098,-0.0082,-0.0093,0,0]}],[{"header":{"parameterUnit":"m.s-1","parameterCategory":2,"la1":30.2992,"la2":30.254,"lo1":-89.0895,"lo2":-89.0443,"dy":0.0025,"dx":0.0025,"nx":19,"ny":19,"refTime":"2026-05-14T21:00:00:Z","depth":"4","parameterNumber":2,"parameterNumberName":"U-component_of_CURRENTS"},"data":[0,0,0,-0.0885,-0.0885,-0.0897,-0.0897,-0.13,-0.1305,0,0,0,0,0,0,0,0,0,0,0,-0.0907,-0.0908,-0.0885,-0.0885,-0.0897,-0.0897,-0.1299,-0.1305,0,0,0,0,0,0,0,0,0,0,0,-0.0907,-0.0907,-0.0908,-0.0885,-0.0897,-0.0897,-0.1298,-0.1195,0,0,0,0,0,0,0,0,0,0,-0.1136,-0.105,-0.0907,-0.0908,-0.0885,-0.0897,-0.0897,-0.1186,-0.1202,-0.1404,0,-0.1412,0,-0.1367,-0.134,-0.1342,0,0,0,-0.0893,-0.1035,-0.1084,-0.0908,-0.0885,-0.0897,-0.0894,-0.1192,-0.121,-0.1427,-0.1417,-0.1428,-0.1373,-0.1344,-0.1346,-0.1782,-0.1782,0,0,-0.0892,-0.0877,-0.107,-0.1095,-0.0909,-0.0894,-0.0894,-0.1198,-0.1212,-0.1418,-0.1435,-0.138,-0.1347,-0.1351,-0.1781,-0.1782,0,0,0,-0.0885,-0.0876,-0.0907,-0.1083,-0.1053,-0.0894,-0.0895,-0.1196,-0.122,-0.1439,-0.1385,-0.135,-0.1356,-0.178,-0.1781,-0.1697,0,0,0,-0.0885,-0.0872,-0.0908,-0.0894,-0.1044,-0.1058,-0.0886,-0.1198,-0.1228,-0.1383,-0.135,-0.1362,-0.1779,-0.1781,-0.1697,-0.163,0,0,0,-0.0903,-0.0871,-0.0887,-0.0894,-0.0896,-0.1051,-0.1086,-0.1201,-0.1199,-0.1342,-0.1363,-0.1778,-0.178,-0.1697,-0.1632,-0.1508,0,0,0,-0.0867,-0.0883,-0.0887,-0.0892,-0.0896,-0.0945,-0.1082,-0.1195,-0.1316,-0.1353,-0.1779,-0.1781,-0.1697,-0.1634,-0.1511,-0.1418,0,0,0,-0.0867,-0.0881,-0.0886,-0.0891,-0.0874,-0.0942,-0.1003,-0.1257,-0.1419,-0.1707,-0.1714,-0.1697,-0.1633,-0.1508,-0.154,0,0,0,0,-0.0873,-0.0882,-0.0875,-0.0869,-0.0905,-0.0927,-0.1127,-0.1242,-0.1506,-0.1494,-0.1762,-0.1725,-0.1647,-0.1609,-0.1791,-0.179,-0.179,-0.179,-0.179,-0.0805,-0.0834,-0.0828,-0.0861,-0.0878,-0.1001,-0.108,-0.1299,-0.1503,-0.1614,-0.1705,-0.162,-0.1588,-0.178,-0.1779,-0.1779,-0.1779,-0.1778,-0.1778,-0.0784,-0.0778,-0.0805,-0.0824,-0.0852,-0.0933,-0.1125,-0.1278,-0.1479,-0.1644,-0.1573,-0.1589,-0.1771,-0.1773,-0.1774,-0.1775,-0.1775,-0.1776,-0.1776,-0.0717,-0.0724,-0.0768,-0.0797,-0.083,-0.0936,-0.1025,-0.1229,-0.1391,-0.1414,-0.1378,-0.1536,-0.1479,-0.1411,-0.141,-0.1409,-0.1408,-0.1408,-0.1407,-0.0621,-0.067,-0.0713,-0.0766,-0.0797,-0.0865,-0.1007,-0.1063,-0.1208,-0.1256,-0.1411,-0.1494,-0.1506,-0.1459,-0.1395,-0.1397,-0.1398,-0.14,-0.14,-0.055,-0.0586,-0.0637,-0.069,-0.0787,-0.082,-0.0922,-0.0916,-0.092,-0.0908,-0.1131,-0.1148,-0.1141,-0.1161,-0.1101,-0.0927,-0.0925,-0.0924,0,-0.0478,-0.0509,-0.0565,-0.0646,-0.0724,-0.0802,-0.0807,-0.0822,-0.0854,-0.0852,-0.0949,-0.1203,-0.1216,-0.1219,-0.1233,-0.1168,0,0,0,-0.0432,-0.045,-0.047,-0.0577,-0.069,-0.0745,-0.08,-0.0774,-0.0865,-0.0785,-0.0884,-0.0894,-0.1214,-0.1357,-0.1387,-0.1401,-0.1325,0,0]},{"header":{"parameterUnit":"m.s-1","parameterCategory":2,"la1":30.2992,"la2":30.254,"lo1":-89.0895,"lo2":-89.0443,"dy":0.0025,"dx":0.0025,"nx":19,"ny":19,"refTime":"2026-05-14T21:00:00:Z","depth":"4","parameterNumber":3,"parameterNumberName":"V-component_of_CURRENTS"},"data":[0,0,0,-0.0016,-0.0017,-0.0102,-0.0103,0.0022,0.0024,0,0,0,0,0,0,0,0,0,0,0,0.0016,0.0016,-0.0016,-0.0017,-0.0102,-0.0103,0.0021,0.0024,0,0,0,0,0,0,0,0,0,0,0,0.0016,0.0016,0.0016,-0.0017,-0.0102,-0.0103,0.0021,0.0023,0,0,0,0,0,0,0,0,0,0,0.0074,0.0063,0.0016,0.0016,-0.0018,-0.0102,-0.0103,0.002,0.0023,0.0133,0,0.0128,0,0.0094,0.0039,0.004,0,0,0,-0.0036,0.006,0.0057,0.0016,-0.0018,-0.0101,-0.0069,0.0019,0.0023,0.0138,0.0129,0.0132,0.0096,0.0041,0.0042,0.0238,0.0238,0,0,-0.0032,-0.0014,0.0053,0.0059,-0.0022,-0.0066,-0.0071,0.0019,0.0027,0.013,0.0134,0.0098,0.0042,0.0044,0.0237,0.0238,0,0,0,-0.0005,-0.001,-0.0023,0.0056,0.003,-0.0068,-0.0074,0.0021,0.0022,0.0135,0.01,0.0044,0.0046,0.0237,0.0238,0.0196,0,0,0,-0.0003,0.0007,-0.002,-0.0013,0.0027,-0.001,-0.0073,0.0015,0.0023,0.0099,0.0044,0.0049,0.0237,0.0237,0.0196,0.0133,0,0,0,0.0016,0.0008,0.0006,-0.0011,-0.0039,-0.0014,-0.0012,0.0013,0.0006,0.004,0.0049,0.0236,0.0237,0.0196,0.0136,0.022,0,0,0,0.0026,-0.0011,0.0007,-0.0043,-0.0037,-0.0126,-0.0014,-0.0053,-0.0039,0.0045,0.0237,0.0238,0.0196,0.0137,0.022,0.0245,0,0,0,-0.0026,-0.0016,-0.005,-0.0037,-0.013,-0.0116,-0.0195,-0.0109,0.0032,0.022,0.0222,0.0196,0.0136,0.022,0.0304,0,0,0,0,-0.0072,-0.009,-0.0119,-0.0158,-0.0203,-0.0235,-0.0204,-0.0128,0.0062,0.0052,0.0228,0.0191,0.0247,0.0262,0.0242,0.0242,0.0242,0.0242,0.0242,-0.0107,-0.0139,-0.0205,-0.0248,-0.0292,-0.0312,-0.029,-0.0148,-0.0016,0.0096,0.0183,0.0244,0.0259,0.0238,0.0237,0.0237,0.0237,0.0237,0.0237,-0.0178,-0.0206,-0.0244,-0.0318,-0.0339,-0.0381,-0.0287,-0.0185,0.0049,0.014,0.0201,0.0245,0.0234,0.0234,0.0235,0.0235,0.0235,0.0236,0.0236,-0.0178,-0.0199,-0.0242,-0.0324,-0.0364,-0.0381,-0.0303,-0.0187,0.0025,0.0102,0.0261,0.024,0.0219,0.0225,0.0225,0.0225,0.0225,0.0225,0.0225,-0.015,-0.0201,-0.0251,-0.0326,-0.0359,-0.0356,-0.0267,-0.0144,0.0032,0.0199,0.0158,0.0241,0.0241,0.0221,0.0227,0.0227,0.0226,0.0226,0.0226,-0.0154,-0.0164,-0.024,-0.0282,-0.0349,-0.034,-0.0274,-0.0044,0.0128,0.0289,0.0274,0.0272,0.03,0.0299,0.0281,0.0305,0.0306,0.0306,0,-0.0131,-0.015,-0.0232,-0.0294,-0.0321,-0.033,-0.012,0.0019,0.0188,0.018,0.0146,0.0116,0.012,0.0136,0.0137,0.0108,0,0,0,-0.0131,-0.0154,-0.0201,-0.0277,-0.0321,-0.017,-0.0069,0.0027,0.014,0.0309,0.0315,0.0313,0.0227,0.0232,0.0269,0.027,0.024,0,0]}]]